User: anonymous   Login
Location: Niedergestelen
(46.3129°N, 7.7822°E)
Time: 07:11:33
(UTC+00:00)
Language:

ERS-2 - Orbit

View from above orbital plane
View from above orbital plane
View from above satellite
View from above satellite

Ground track
Ground track

The orbit data is extracted from the following two-line orbital elements,

1 23560U 95021A   21057.68867398  .00001440  00000-0  63779-4 0  9998
2 23560  98.5550 252.3924 0004098  41.5904 318.5640 15.23695493380826
Epoch (UTC): 26 February 2021 16:31:41
Eccentricity: 0.0004098
inclination: 98.5550°
perigee height: 492 km
apogee height: 497 km
right ascension of ascending node: 252.3924°
argument of perigee: 41.5904°
revolutions per day: 15.23695493
mean anomaly at epoch: 318.5640°
orbit number at epoch: 38082

The dashed part of the orbit path shows where the satellite is in the earth's shadow,  

DLR